Theta_e
281 281 282 283 284 285 287 288 289 290 293 297 300 300 301 301 302 303 307 309 309 309
281 282 282 283 285 285 287 288 289 292 294 297 299 300 301 302 303 304 308 309 312 312
281 282 283 283 284 286 287 288 290 292 293 295 297 301 301 303 305 306 307 309 310 312
281 281 282 283 285 286 287 289 290 291 293 294 295 299 300 301 302 302 302 304 306 307
280 281 282 283 285 287 288 290 290 292 291 292 293 294 297 299 299 299 299 300 301 303
280 282 283 284 286 288 289 289 288 289 289 290 291 292 292 294 295 296 296 297 298 298
280 282 284 285 285 286 287 287 287 287 287 288 289 290 290 291 291 291 291 291 292 293
280 282 284 284 285 286 286 286 286 286 286 287 288 289 288 288 288 288 288 287 288 288
279 280 281 283 284 284 284 284 285 285 285 285 287 289 289 287 286 286 286 285 286 287
278 278 279 281 281 282 283 283 283 284 285 285 286 287 287 285 285 284 284 285 285 285
278 278 278 279 280 280 281 281 282 283 284 284 285 287 286 285 284 284 283 284 285 285
278 278 278 278 279 280 281 281 281 283 283 283 284 287 287 285 283 283 283 284 284 285
279 279 278 279 279 280 281 280 281 281 282 283 284 286 286 284 283 281 281 282 284 285
279 280 280 279 279 279 279 279 279 279 280 281 283 284 285 284 282 281 280 280 281 283
Wind_Speed
14 10 10 12 11 10 10 10 15 15 15 17 16 16 14 12 14 14 14 17 13 12
13 13 12 15 13 11 12 11 15 16 15 15 16 15 15 13 14 14 13 14 14 12
13 13 12 13 14 14 13 13 14 13 14 13 15 13 15 13 13 13 8 8 12 10
13 13 12 12 13 13 13 13 13 12 11 11 12 6 6 7 5 4 5 7 7 5
13 12 12 12 12 12 12 9 10 8 8 8 8 7 5 5 4 4 7 6 7 6
12 12 12 12 11 9 8 8 7 6 6 6 5 5 4 4 1 1 2 1 3 4
11 12 10 11 10 8 7 7 7 6 6 6 4 4 3 3 3 2 4 3 3 1
10 10 10 9 8 7 7 7 6 5 6 7 6 4 4 3 1 5 3 3 4 4
9 9 9 9 8 7 7 7 8 9 7 8 6 10 6 5 4 5 5 3 4 4
8 8 9 9 10 10 10 9 9 9 8 6 4 9 10 10 6 7 6 5 4 5
8 8 8 8 9 8 8 9 8 9 9 7 8 14 15 15 10 9 9 7 7 8
7 7 7 8 8 7 7 9 9 8 10 9 11 18 18 13 10 11 12 12 12 10
6 6 7 7 7 7 6 7 6 10 12 14 13 23 23 14 7 9 8 11 13 24
5 5 5 5 5 5 5 6 8 9 11 13 14 18 25 22 10 8 9 10 11 11
Wind_Direction
286 284 282 279 279 276 277 278 280 276 270 264 277 246 236 235 237 234 229 225 228 237
293 288 284 286 279 274 273 274 272 276 284 286 287 241 234 231 229 232 226 226 218 225
295 289 282 278 277 276 275 270 273 277 281 290 291 245 231 239 232 218 217 225 217 217
295 293 285 279 279 276 279 279 279 278 284 295 310 284 198 205 158 171 205 213 211 194
294 291 290 284 283 286 283 279 283 284 296 301 311 308 290 162 163 170 212 207 214 219
302 307 307 304 303 299 305 303 302 301 294 299 303 310 357 316 91 204 270 251 211 221
314 318 317 318 323 328 332 334 335 327 315 311 329 332 308 343 43 59 44 12 359 324
321 326 332 335 338 345 352 351 342 344 348 347 358 1 5 22 18 75 67 50 57 34
340 341 343 345 352 359 359 359 3 8 6 2 349 9 48 64 64 72 60 38 49 55
346 349 354 356 8 10 10 13 15 14 13 14 6 51 65 68 62 64 51 33 31 48
350 357 357 11 16 18 18 17 18 15 17 22 39 60 71 69 65 64 54 44 52 65
348 356 1 14 12 13 23 28 22 19 23 40 47 50 52 55 59 59 56 52 48 55
348 6 8 10 12 13 19 26 29 34 32 37 48 50 50 47 59 62 59 53 53 59
357 3 12 20 16 14 25 34 34 41 37 33 38 48 52 49 49 55 59 53 51 52